Retour au catalogue

QIANFAN-135

ActifCommunicationsPO
NORAD 69081·PAYLOAD·🇨🇳 China

Lancé May 12, 2026 depuis Taiyuan Satellite Launch Center

Loading…

Prochains Passages (prochaines 24 heures)

TLE

FraisSource: Space-Track

Époque: Sep 14, 2026, 22:10 UTC

1 69081U 26104J   26257.92404367  .00000111  00000-0  15306-3 0  9995
2 69081  88.9909 332.3314 0002362 114.4107 245.7291 13.51021727 17264

Suivez QIANFAN-135 en temps réel avec AllMySat

Download on the App Store